contact:dominique.lefevre@mio.osupytheas.fr, maurice.libes@osupytheas.fr, didier.mallarino@osupytheas.fr
Project:EMSO http://www.emso-fr.org/EMSO-France
Depth: 2436.0 m
Title:EMSO Ligure Ouest : Data MII capteur MICROCAT
DateTime_Computer,Latitude,Longitude,Temperature,Conductivity,Pressure,DateTime_Instrument
DateTime_Computer,Latitude,Longitude,degC,S m-1,dbar,DateTime_Instrument
2022-11-07T00:02:20Z,42.805,6.029,13.3020,4.60062,2470.577,2022-11-07T02:04:18Z
2022-11-07T00:05:24Z,42.805,6.029,13.3012,4.60064,2470.577,2022-11-07T02:07:21Z
2022-11-07T00:08:27Z,42.805,6.029,13.3017,4.60065,2470.6,2022-11-07T02:10:24Z
2022-11-07T00:11:30Z,42.805,6.029,13.3011,4.60062,2470.577,2022-11-07T02:13:27Z
2022-11-07T00:14:33Z,42.805,6.029,13.3014,4.60067,2470.577,2022-11-07T02:16:30Z
2022-11-07T00:17:36Z,42.805,6.029,13.3015,4.60061,2470.53,2022-11-07T02:19:33Z
2022-11-07T00:20:39Z,42.805,6.029,13.3012,4.60064,2470.577,2022-11-07T02:22:36Z
2022-11-07T00:23:42Z,42.805,6.029,13.3014,4.60069,2470.577,2022-11-07T02:25:39Z
2022-11-07T00:26:45Z,42.805,6.029,13.3014,4.60067,2470.577,2022-11-07T02:28:42Z
2022-11-07T00:29:48Z,42.805,6.029,13.3015,4.60064,2470.577,2022-11-07T02:31:46Z
2022-11-07T00:32:51Z,42.805,6.029,13.3014,4.60062,2470.553,2022-11-07T02:34:49Z
2022-11-07T00:35:54Z,42.805,6.029,13.3016,4.60061,2470.591,2022-11-07T02:37:52Z
2022-11-07T00:38:57Z,42.805,6.029,13.3018,4.60062,2470.553,2022-11-07T02:40:55Z
2022-11-07T00:42:00Z,42.805,6.029,13.3014,4.60060,2470.591,2022-11-07T02:43:58Z
2022-11-07T00:45:03Z,42.805,6.029,13.3013,4.60062,2470.6,2022-11-07T02:47:01Z
2022-11-07T00:48:07Z,42.805,6.029,13.3010,4.60062,2470.586,2022-11-07T02:50:04Z
2022-11-07T00:51:10Z,42.805,6.029,13.3017,4.60060,2470.553,2022-11-07T02:53:07Z
2022-11-07T00:54:13Z,42.805,6.029,13.3014,4.60060,2470.577,2022-11-07T02:56:10Z
2022-11-07T00:57:16Z,42.805,6.029,13.3016,4.60059,2470.591,2022-11-07T02:59:13Z
2022-11-07T01:00:19Z,42.805,6.029,13.3011,4.60061,2470.637,2022-11-07T03:02:16Z
2022-11-07T01:03:22Z,42.805,6.029,13.3013,4.60059,2470.577,2022-11-07T03:05:19Z
2022-11-07T01:06:25Z,42.805,6.029,13.3014,4.60061,2470.6,2022-11-07T03:08:22Z
2022-11-07T01:09:28Z,42.805,6.029,13.3014,4.60062,2470.553,2022-11-07T03:11:25Z
2022-11-07T01:12:31Z,42.805,6.029,13.3014,4.60059,2470.563,2022-11-07T03:14:29Z
2022-11-07T01:15:34Z,42.805,6.029,13.3016,4.60060,2470.614,2022-11-07T03:17:32Z
2022-11-07T01:18:37Z,42.805,6.029,13.3013,4.60063,2470.624,2022-11-07T03:20:35Z
2022-11-07T01:21:40Z,42.805,6.029,13.3011,4.60059,2470.614,2022-11-07T03:23:38Z
2022-11-07T01:24:43Z,42.805,6.029,13.3012,4.60058,2470.577,2022-11-07T03:26:41Z
2022-11-07T01:27:47Z,42.805,6.029,13.3015,4.60064,2470.6,2022-11-07T03:29:44Z
2022-11-07T01:30:50Z,42.805,6.029,13.3014,4.60064,2470.577,2022-11-07T03:32:47Z
2022-11-07T01:33:53Z,42.805,6.029,13.3015,4.60062,2470.553,2022-11-07T03:35:50Z
2022-11-07T01:36:56Z,42.805,6.029,13.3016,4.60067,2470.614,2022-11-07T03:38:53Z
2022-11-07T01:39:59Z,42.805,6.029,13.3016,4.60071,2470.6,2022-11-07T03:41:56Z
2022-11-07T01:43:02Z,42.805,6.029,13.3014,4.60062,2470.637,2022-11-07T03:44:59Z
2022-11-07T01:46:05Z,42.805,6.029,13.3014,4.60064,2470.614,2022-11-07T03:48:02Z
2022-11-07T01:49:08Z,42.805,6.029,13.3018,4.60064,2470.577,2022-11-07T03:51:05Z
2022-11-07T01:52:11Z,42.805,6.029,13.3019,4.60062,2470.6,2022-11-07T03:54:09Z
2022-11-07T01:55:14Z,42.805,6.029,13.3014,4.60061,2470.6,2022-11-07T03:57:12Z
2022-11-07T01:58:17Z,42.805,6.029,13.3015,4.60061,2470.591,2022-11-07T04:00:15Z
2022-11-07T02:01:20Z,42.805,6.029,13.3017,4.60059,2470.6,2022-11-07T04:03:18Z
2022-11-07T02:04:23Z,42.805,6.029,13.3018,4.60063,2470.637,2022-11-07T04:06:21Z
2022-11-07T02:07:26Z,42.805,6.029,13.3018,4.60063,2470.637,2022-11-07T04:09:24Z
2022-11-07T02:10:30Z,42.805,6.029,13.3013,4.60061,2470.6,2022-11-07T04:12:27Z
2022-11-07T02:13:33Z,42.805,6.029,13.3015,4.60065,2470.6,2022-11-07T04:15:30Z
2022-11-07T02:16:36Z,42.805,6.029,13.3015,4.60059,2470.577,2022-11-07T04:18:33Z
2022-11-07T02:19:39Z,42.805,6.029,13.3014,4.60063,2470.624,2022-11-07T04:21:36Z
2022-11-07T02:22:42Z,42.805,6.029,13.3014,4.60061,2470.637,2022-11-07T04:24:39Z
2022-11-07T02:25:45Z,42.805,6.029,13.3016,4.60061,2470.646,2022-11-07T04:27:42Z
2022-11-07T02:28:48Z,42.805,6.029,13.3015,4.60064,2470.624,2022-11-07T04:30:45Z
2022-11-07T02:31:51Z,42.805,6.029,13.3015,4.60060,2470.614,2022-11-07T04:33:48Z
2022-11-07T02:34:54Z,42.805,6.029,13.3015,4.60062,2470.646,2022-11-07T04:36:52Z
2022-11-07T02:37:57Z,42.805,6.029,13.3014,4.60061,2470.624,2022-11-07T04:39:55Z
2022-11-07T02:41:00Z,42.805,6.029,13.3017,4.60059,2470.637,2022-11-07T04:42:58Z
2022-11-07T02:44:03Z,42.805,6.029,13.3014,4.60062,2470.624,2022-11-07T04:46:01Z
2022-11-07T02:47:06Z,42.805,6.029,13.3020,4.60060,2470.624,2022-11-07T04:49:04Z
2022-11-07T02:50:09Z,42.805,6.029,13.3014,4.60058,2470.624,2022-11-07T04:52:07Z
2022-11-07T02:53:13Z,42.805,6.029,13.3022,4.60059,2470.661,2022-11-07T04:55:10Z
2022-11-07T02:56:16Z,42.805,6.029,13.3014,4.60059,2470.67,2022-11-07T04:58:13Z
2022-11-07T02:59:19Z,42.805,6.029,13.3011,4.60062,2470.684,2022-11-07T05:01:16Z
2022-11-07T03:02:22Z,42.805,6.029,13.3010,4.60061,2470.67,2022-11-07T05:04:19Z
2022-11-07T03:05:25Z,42.805,6.029,13.3015,4.60061,2470.646,2022-11-07T05:07:22Z
2022-11-07T03:08:28Z,42.805,6.029,13.3014,4.60059,2470.67,2022-11-07T05:10:25Z
2022-11-07T03:11:31Z,42.805,6.029,13.3015,4.60066,2470.646,2022-11-07T05:13:28Z
2022-11-07T03:14:34Z,42.805,6.029,13.3017,4.60062,2470.67,2022-11-07T05:16:31Z
2022-11-07T03:17:37Z,42.805,6.029,13.3015,4.60066,2470.707,2022-11-07T05:19:35Z
2022-11-07T03:20:40Z,42.805,6.029,13.3014,4.60062,2470.646,2022-11-07T05:22:38Z
2022-11-07T03:23:43Z,42.805,6.029,13.3014,4.60059,2470.693,2022-11-07T05:25:41Z
2022-11-07T03:26:46Z,42.805,6.029,13.3016,4.60059,2470.707,2022-11-07T05:28:44Z
2022-11-07T03:29:49Z,42.805,6.029,13.3020,4.60064,2470.67,2022-11-07T05:31:47Z
2022-11-07T03:32:53Z,42.805,6.029,13.3014,4.60062,2470.684,2022-11-07T05:34:50Z
2022-11-07T03:35:56Z,42.805,6.029,13.3019,4.60060,2470.693,2022-11-07T05:37:53Z
2022-11-07T03:38:59Z,42.805,6.029,13.3013,4.60058,2470.684,2022-11-07T05:40:56Z
2022-11-07T03:42:02Z,42.805,6.029,13.3014,4.60059,2470.693,2022-11-07T05:43:59Z
2022-11-07T03:45:05Z,42.805,6.029,13.3012,4.60059,2470.693,2022-11-07T05:47:02Z
2022-11-07T03:48:08Z,42.805,6.029,13.3018,4.60059,2470.693,2022-11-07T05:50:05Z
2022-11-07T03:51:11Z,42.805,6.029,13.3021,4.60060,2470.693,2022-11-07T05:53:08Z
2022-11-07T03:54:14Z,42.805,6.029,13.3015,4.60059,2470.717,2022-11-07T05:56:11Z
2022-11-07T03:57:17Z,42.805,6.029,13.3014,4.60072,2470.717,2022-11-07T05:59:15Z
2022-11-07T04:00:20Z,42.805,6.029,13.3015,4.60068,2470.73,2022-11-07T06:02:18Z
2022-11-07T04:03:23Z,42.805,6.029,13.3013,4.60067,2470.693,2022-11-07T06:05:21Z
2022-11-07T04:06:26Z,42.805,6.029,13.3021,4.60060,2470.707,2022-11-07T06:08:24Z
2022-11-07T04:09:29Z,42.805,6.029,13.3017,4.60064,2470.754,2022-11-07T06:11:27Z
2022-11-07T04:12:32Z,42.805,6.029,13.3015,4.60062,2470.717,2022-11-07T06:14:30Z
2022-11-07T04:15:36Z,42.805,6.029,13.3012,4.60059,2470.707,2022-11-07T06:17:33Z
2022-11-07T04:18:39Z,42.805,6.029,13.3013,4.60058,2470.717,2022-11-07T06:20:36Z
2022-11-07T04:21:42Z,42.805,6.029,13.3015,4.60058,2470.717,2022-11-07T06:23:39Z
2022-11-07T04:24:45Z,42.805,6.029,13.3011,4.60067,2470.777,2022-11-07T06:26:42Z
2022-11-07T04:27:48Z,42.805,6.029,13.3018,4.60062,2470.75,2022-11-07T06:29:45Z
2022-11-07T04:30:51Z,42.805,6.029,13.3020,4.60062,2470.717,2022-11-07T06:32:48Z
2022-11-07T04:33:54Z,42.805,6.029,13.3016,4.60059,2470.74,2022-11-07T06:35:51Z
2022-11-07T04:36:57Z,42.805,6.029,13.3014,4.60059,2470.754,2022-11-07T06:38:55Z
2022-11-07T04:40:00Z,42.805,6.029,13.3012,4.60062,2470.754,2022-11-07T06:41:58Z
2022-11-07T04:43:03Z,42.805,6.029,13.3015,4.60058,2470.74,2022-11-07T06:45:01Z
2022-11-07T04:46:06Z,42.805,6.029,13.3014,4.60059,2470.74,2022-11-07T06:48:04Z
2022-11-07T04:49:09Z,42.805,6.029,13.3017,4.60062,2470.777,2022-11-07T06:51:07Z
2022-11-07T04:52:12Z,42.805,6.029,13.3017,4.60059,2470.763,2022-11-07T06:54:10Z
2022-11-07T04:55:16Z,42.805,6.029,13.3014,4.60063,2470.763,2022-11-07T06:57:13Z
2022-11-07T04:58:19Z,42.805,6.029,13.3015,4.60063,2470.754,2022-11-07T07:00:16Z
2022-11-07T05:01:22Z,42.805,6.029,13.3014,4.60062,2470.763,2022-11-07T07:03:19Z
2022-11-07T05:04:25Z,42.805,6.029,13.3013,4.60060,2470.777,2022-11-07T07:06:22Z
2022-11-07T05:07:28Z,42.805,6.029,13.3019,4.60062,2470.777,2022-11-07T07:09:25Z
2022-11-07T05:10:31Z,42.805,6.029,13.3019,4.60064,2470.763,2022-11-07T07:12:28Z
2022-11-07T05:13:34Z,42.805,6.029,13.3021,4.60062,2470.777,2022-11-07T07:15:31Z
2022-11-07T05:16:37Z,42.805,6.029,13.3014,4.60061,2470.763,2022-11-07T07:18:34Z
2022-11-07T05:19:40Z,42.805,6.029,13.3017,4.60061,2470.787,2022-11-07T07:21:38Z
2022-11-07T05:22:43Z,42.805,6.029,13.3016,4.60062,2470.8,2022-11-07T07:24:41Z
2022-11-07T05:25:46Z,42.805,6.029,13.3015,4.60062,2470.787,2022-11-07T07:27:44Z
2022-11-07T05:28:49Z,42.805,6.029,13.3016,4.60062,2470.787,2022-11-07T07:30:47Z
2022-11-07T05:31:52Z,42.805,6.029,13.3021,4.60062,2470.777,2022-11-07T07:33:50Z
2022-11-07T05:34:55Z,42.805,6.029,13.3016,4.60061,2470.8,2022-11-07T07:36:53Z
2022-11-07T05:37:59Z,42.805,6.029,13.3014,4.60073,2470.763,2022-11-07T07:39:56Z
2022-11-07T05:41:02Z,42.805,6.029,13.3017,4.60062,2470.763,2022-11-07T07:42:59Z
2022-11-07T05:44:05Z,42.805,6.029,13.3014,4.60060,2470.773,2022-11-07T07:46:02Z
2022-11-07T05:47:08Z,42.805,6.029,13.3017,4.60062,2470.763,2022-11-07T07:49:05Z
2022-11-07T05:50:11Z,42.805,6.029,13.3016,4.60059,2470.777,2022-11-07T07:52:08Z
2022-11-07T05:53:14Z,42.805,6.029,13.3018,4.60059,2470.763,2022-11-07T07:55:11Z
2022-11-07T05:56:17Z,42.805,6.029,13.3015,4.60060,2470.824,2022-11-07T07:58:14Z
2022-11-07T05:59:20Z,42.805,6.029,13.3015,4.60064,2470.763,2022-11-07T08:01:18Z
2022-11-07T06:02:23Z,42.805,6.029,13.3018,4.60062,2470.777,2022-11-07T08:04:21Z
2022-11-07T06:05:26Z,42.805,6.029,13.3018,4.60064,2470.81,2022-11-07T08:07:24Z
2022-11-07T06:08:29Z,42.805,6.029,13.3018,4.60069,2470.824,2022-11-07T08:10:27Z
2022-11-07T06:11:32Z,42.805,6.029,13.3014,4.60064,2470.81,2022-11-07T08:13:30Z
2022-11-07T06:14:35Z,42.805,6.029,13.3014,4.60064,2470.787,2022-11-07T08:16:33Z
2022-11-07T06:17:38Z,42.805,6.029,13.3019,4.60074,2470.8,2022-11-07T08:19:36Z
2022-11-07T06:20:42Z,42.805,6.029,13.3014,4.60067,2470.787,2022-11-07T08:22:39Z
2022-11-07T06:23:45Z,42.805,6.029,13.3013,4.60062,2470.81,2022-11-07T08:25:42Z
2022-11-07T06:26:48Z,42.805,6.029,13.3014,4.60061,2470.763,2022-11-07T08:28:45Z
2022-11-07T06:29:51Z,42.805,6.029,13.3016,4.60064,2470.824,2022-11-07T08:31:48Z
2022-11-07T06:32:54Z,42.805,6.029,13.3014,4.60070,2470.754,2022-11-07T08:34:51Z
2022-11-07T06:35:57Z,42.805,6.029,13.3023,4.60061,2470.787,2022-11-07T08:37:54Z
2022-11-07T06:39:00Z,42.805,6.029,13.3019,4.60068,2470.8,2022-11-07T08:40:57Z
2022-11-07T06:42:03Z,42.805,6.029,13.3015,4.60064,2470.824,2022-11-07T08:44:01Z
2022-11-07T06:45:06Z,42.805,6.029,13.3016,4.60063,2470.777,2022-11-07T08:47:04Z
2022-11-07T06:48:09Z,42.805,6.029,13.3016,4.60062,2470.754,2022-11-07T08:50:07Z
2022-11-07T06:51:12Z,42.805,6.029,13.3016,4.60064,2470.763,2022-11-07T08:53:10Z
2022-11-07T06:54:15Z,42.805,6.029,13.3015,4.60062,2470.763,2022-11-07T08:56:13Z
2022-11-07T06:57:18Z,42.805,6.029,13.3013,4.60064,2470.81,2022-11-07T08:59:16Z
2022-11-07T07:00:22Z,42.805,6.029,13.3015,4.60069,2470.8,2022-11-07T09:02:19Z
2022-11-07T07:03:25Z,42.805,6.029,13.3016,4.60071,2470.824,2022-11-07T09:05:22Z
2022-11-07T07:06:28Z,42.805,6.029,13.3014,4.60066,2470.787,2022-11-07T09:08:25Z
2022-11-07T07:09:31Z,42.805,6.029,13.3014,4.60073,2470.8,2022-11-07T09:11:28Z
2022-11-07T07:12:34Z,42.805,6.029,13.3013,4.60084,2470.754,2022-11-07T09:14:31Z
2022-11-07T07:15:37Z,42.805,6.029,13.3014,4.60066,2470.777,2022-11-07T09:17:34Z
2022-11-07T07:18:40Z,42.805,6.029,13.3016,4.60076,2470.787,2022-11-07T09:20:37Z
2022-11-07T07:21:43Z,42.805,6.029,13.3012,4.60073,2470.787,2022-11-07T09:23:40Z
2022-11-07T07:24:46Z,42.805,6.029,13.3014,4.60064,2470.75,2022-11-07T09:26:44Z
2022-11-07T07:27:49Z,42.805,6.029,13.3015,4.60077,2470.787,2022-11-07T09:29:47Z
2022-11-07T07:30:52Z,42.805,6.029,13.3013,4.60079,2470.8,2022-11-07T09:32:50Z
2022-11-07T07:33:55Z,42.805,6.029,13.3014,4.60069,2470.787,2022-11-07T09:35:53Z
2022-11-07T07:36:58Z,42.805,6.029,13.3016,4.60076,2470.787,2022-11-07T09:38:56Z
2022-11-07T07:40:01Z,42.805,6.029,13.3014,4.60075,2470.787,2022-11-07T09:41:59Z
2022-11-07T07:43:05Z,42.805,6.029,13.3014,4.60079,2470.777,2022-11-07T09:45:02Z
2022-11-07T07:46:08Z,42.805,6.029,13.3014,4.60070,2470.763,2022-11-07T09:48:05Z
2022-11-07T07:49:11Z,42.805,6.029,13.3015,4.60075,2470.787,2022-11-07T09:51:08Z
2022-11-07T07:52:14Z,42.805,6.029,13.3009,4.60069,2470.777,2022-11-07T09:54:11Z
2022-11-07T07:55:17Z,42.805,6.029,13.3016,4.60072,2470.787,2022-11-07T09:57:14Z
2022-11-07T07:58:20Z,42.805,6.029,13.3015,4.60074,2470.763,2022-11-07T10:00:17Z
2022-11-07T08:01:23Z,42.805,6.029,13.3016,4.60071,2470.74,2022-11-07T10:03:20Z
2022-11-07T08:04:26Z,42.805,6.029,13.3015,4.60073,2470.763,2022-11-07T10:06:23Z
2022-11-07T08:07:29Z,42.805,6.029,13.3013,4.60068,2470.777,2022-11-07T10:09:27Z
2022-11-07T08:10:32Z,42.805,6.029,13.3015,4.60074,2470.777,2022-11-07T10:12:30Z
2022-11-07T08:13:35Z,42.805,6.029,13.3014,4.60075,2470.74,2022-11-07T10:15:33Z
2022-11-07T08:16:38Z,42.805,6.029,13.3009,4.60073,2470.763,2022-11-07T10:18:36Z
2022-11-07T08:19:41Z,42.805,6.029,13.3016,4.60072,2470.763,2022-11-07T10:21:39Z
2022-11-07T08:22:45Z,42.805,6.029,13.3015,4.60071,2470.74,2022-11-07T10:24:42Z
2022-11-07T08:25:48Z,42.805,6.029,13.3015,4.60072,2470.777,2022-11-07T10:27:45Z
2022-11-07T08:28:51Z,42.805,6.029,13.3017,4.60068,2470.717,2022-11-07T10:30:48Z
2022-11-07T08:31:54Z,42.805,6.029,13.3011,4.60066,2470.763,2022-11-07T10:33:51Z
2022-11-07T08:34:57Z,42.805,6.029,13.3012,4.60067,2470.763,2022-11-07T10:36:54Z
2022-11-07T08:38:00Z,42.805,6.029,13.3014,4.60068,2470.763,2022-11-07T10:39:57Z
2022-11-07T08:41:03Z,42.805,6.029,13.3013,4.60067,2470.763,2022-11-07T10:43:00Z
2022-11-07T08:44:06Z,42.805,6.029,13.3012,4.60064,2470.763,2022-11-07T10:46:04Z
2022-11-07T08:47:09Z,42.805,6.029,13.3016,4.60064,2470.777,2022-11-07T10:49:07Z
2022-11-07T08:50:12Z,42.805,6.029,13.3014,4.60067,2470.74,2022-11-07T10:52:10Z
2022-11-07T08:53:15Z,42.805,6.029,13.3014,4.60069,2470.754,2022-11-07T10:55:13Z
2022-11-07T08:56:18Z,42.805,6.029,13.3011,4.60068,2470.74,2022-11-07T10:58:16Z
2022-11-07T08:59:21Z,42.805,6.029,13.3016,4.60067,2470.74,2022-11-07T11:01:19Z
2022-11-07T09:02:25Z,42.805,6.029,13.3010,4.60065,2470.754,2022-11-07T11:04:22Z
2022-11-07T09:05:28Z,42.805,6.029,13.3011,4.60064,2470.73,2022-11-07T11:07:25Z
2022-11-07T09:08:31Z,42.805,6.029,13.3015,4.60062,2470.74,2022-11-07T11:10:28Z
2022-11-07T09:11:34Z,42.805,6.029,13.3011,4.60069,2470.717,2022-11-07T11:13:31Z
2022-11-07T09:14:37Z,42.805,6.029,13.3011,4.60064,2470.754,2022-11-07T11:16:34Z
2022-11-07T09:17:40Z,42.805,6.029,13.3013,4.60069,2470.717,2022-11-07T11:19:37Z
2022-11-07T09:20:43Z,42.805,6.029,13.3012,4.60067,2470.74,2022-11-07T11:22:40Z
2022-11-07T09:23:46Z,42.805,6.029,13.3016,4.60064,2470.73,2022-11-07T11:25:44Z
2022-11-07T09:26:49Z,42.805,6.029,13.3014,4.60068,2470.777,2022-11-07T11:28:47Z
2022-11-07T09:29:52Z,42.805,6.029,13.3016,4.60065,2470.754,2022-11-07T11:31:50Z
2022-11-07T09:32:55Z,42.805,6.029,13.3014,4.60062,2470.707,2022-11-07T11:34:53Z
2022-11-07T09:35:58Z,42.805,6.029,13.3017,4.60062,2470.74,2022-11-07T11:37:56Z
2022-11-07T09:39:01Z,42.805,6.029,13.3017,4.60069,2470.717,2022-11-07T11:40:59Z
2022-11-07T09:42:05Z,42.805,6.029,13.3014,4.60063,2470.717,2022-11-07T11:44:02Z
2022-11-07T09:45:08Z,42.805,6.029,13.3015,4.60064,2470.717,2022-11-07T11:47:05Z
2022-11-07T09:48:11Z,42.805,6.029,13.3009,4.60066,2470.754,2022-11-07T11:50:08Z
2022-11-07T09:51:14Z,42.805,6.029,13.3015,4.60064,2470.707,2022-11-07T11:53:11Z
2022-11-07T09:54:17Z,42.805,6.029,13.3014,4.60062,2470.717,2022-11-07T11:56:14Z
2022-11-07T09:57:20Z,42.805,6.029,13.3011,4.60063,2470.707,2022-11-07T11:59:17Z
2022-11-07T10:00:23Z,42.805,6.029,13.3010,4.60062,2470.74,2022-11-07T12:02:20Z
2022-11-07T10:03:26Z,42.805,6.029,13.3009,4.60061,2470.707,2022-11-07T12:05:24Z
2022-11-07T10:06:29Z,42.805,6.029,13.3012,4.60062,2470.693,2022-11-07T12:08:27Z
2022-11-07T10:09:32Z,42.805,6.029,13.3012,4.60060,2470.74,2022-11-07T12:11:30Z
2022-11-07T10:12:35Z,42.805,6.029,13.3011,4.60061,2470.707,2022-11-07T12:14:33Z
2022-11-07T10:15:38Z,42.805,6.029,13.3010,4.60061,2470.707,2022-11-07T12:17:36Z
2022-11-07T10:18:42Z,42.805,6.029,13.3012,4.60062,2470.693,2022-11-07T12:20:39Z
2022-11-07T10:21:45Z,42.805,6.029,13.3016,4.60064,2470.693,2022-11-07T12:23:42Z
2022-11-07T10:24:48Z,42.805,6.029,13.3014,4.60064,2470.717,2022-11-07T12:26:45Z
2022-11-07T10:27:51Z,42.805,6.029,13.3013,4.60064,2470.74,2022-11-07T12:29:48Z
2022-11-07T10:30:54Z,42.805,6.029,13.3019,4.60064,2470.707,2022-11-07T12:32:51Z
2022-11-07T10:33:57Z,42.805,6.029,13.3017,4.60063,2470.707,2022-11-07T12:35:54Z
2022-11-07T10:37:00Z,42.805,6.029,13.3016,4.60064,2470.717,2022-11-07T12:38:57Z
2022-11-07T10:40:03Z,42.805,6.029,13.3014,4.60062,2470.707,2022-11-07T12:42:01Z
2022-11-07T10:43:06Z,42.805,6.029,13.3014,4.60062,2470.67,2022-11-07T12:45:04Z
2022-11-07T10:46:09Z,42.805,6.029,13.3013,4.60063,2470.693,2022-11-07T12:48:07Z
2022-11-07T10:49:12Z,42.805,6.029,13.3017,4.60062,2470.707,2022-11-07T12:51:10Z
2022-11-07T10:52:15Z,42.805,6.029,13.3013,4.60064,2470.67,2022-11-07T12:54:13Z
2022-11-07T10:55:18Z,42.805,6.029,13.3017,4.60059,2470.707,2022-11-07T12:57:16Z
2022-11-07T10:58:22Z,42.805,6.029,13.3015,4.60059,2470.693,2022-11-07T13:00:19Z
2022-11-07T11:01:25Z,42.805,6.029,13.3015,4.60060,2470.67,2022-11-07T13:03:22Z
2022-11-07T11:04:28Z,42.805,6.029,13.3014,4.60062,2470.693,2022-11-07T13:06:25Z
2022-11-07T11:07:31Z,42.805,6.029,13.3014,4.60063,2470.67,2022-11-07T13:09:28Z
2022-11-07T11:10:34Z,42.805,6.029,13.3014,4.60062,2470.67,2022-11-07T13:12:31Z
2022-11-07T11:13:37Z,42.805,6.029,13.3017,4.60058,2470.67,2022-11-07T13:15:34Z
2022-11-07T11:16:40Z,42.805,6.029,13.3017,4.60064,2470.684,2022-11-07T13:18:37Z
2022-11-07T11:19:43Z,42.805,6.029,13.3015,4.60064,2470.624,2022-11-07T13:21:40Z
2022-11-07T11:22:46Z,42.805,6.029,13.3015,4.60062,2470.646,2022-11-07T13:24:44Z
2022-11-07T11:25:49Z,42.805,6.029,13.3015,4.60062,2470.661,2022-11-07T13:27:47Z
2022-11-07T11:28:52Z,42.805,6.029,13.3013,4.60063,2470.637,2022-11-07T13:30:50Z
2022-11-07T11:31:55Z,42.805,6.029,13.3016,4.60062,2470.661,2022-11-07T13:33:53Z
2022-11-07T11:34:58Z,42.805,6.029,13.3014,4.60060,2470.646,2022-11-07T13:36:56Z
2022-11-07T11:38:02Z,42.805,6.029,13.3011,4.60061,2470.624,2022-11-07T13:39:59Z
2022-11-07T11:41:05Z,42.805,6.029,13.3015,4.60062,2470.624,2022-11-07T13:43:02Z
2022-11-07T11:44:08Z,42.805,6.029,13.3012,4.60061,2470.684,2022-11-07T13:46:05Z
2022-11-07T11:47:11Z,42.805,6.029,13.3014,4.60060,2470.646,2022-11-07T13:49:08Z
2022-11-07T11:50:14Z,42.805,6.029,13.3011,4.60063,2470.646,2022-11-07T13:52:11Z
2022-11-07T11:53:17Z,42.805,6.029,13.3014,4.60062,2470.646,2022-11-07T13:55:14Z
2022-11-07T11:56:20Z,42.805,6.029,13.3014,4.60060,2470.624,2022-11-07T13:58:17Z
2022-11-07T11:59:23Z,42.805,6.029,13.3012,4.60061,2470.646,2022-11-07T14:01:21Z
2022-11-07T12:02:26Z,42.805,6.029,13.3014,4.60059,2470.637,2022-11-07T14:04:24Z
2022-11-07T12:05:29Z,42.805,6.029,13.3016,4.60062,2470.661,2022-11-07T14:07:27Z
2022-11-07T12:08:32Z,42.805,6.029,13.3014,4.60062,2470.6,2022-11-07T14:10:30Z
2022-11-07T12:11:35Z,42.805,6.029,13.3014,4.60062,2470.624,2022-11-07T14:13:33Z
2022-11-07T12:14:38Z,42.805,6.029,13.3012,4.60059,2470.624,2022-11-07T14:16:36Z
2022-11-07T12:17:42Z,42.805,6.029,13.3015,4.60061,2470.661,2022-11-07T14:19:39Z
2022-11-07T12:20:45Z,42.805,6.029,13.3015,4.60059,2470.661,2022-11-07T14:22:42Z
2022-11-07T12:23:48Z,42.805,6.029,13.3016,4.60059,2470.646,2022-11-07T14:25:45Z
2022-11-07T12:26:51Z,42.805,6.029,13.3020,4.60060,2470.661,2022-11-07T14:28:48Z
2022-11-07T12:29:54Z,42.805,6.029,13.3014,4.60062,2470.646,2022-11-07T14:31:51Z
2022-11-07T12:32:57Z,42.805,6.029,13.3015,4.60064,2470.637,2022-11-07T14:34:54Z
2022-11-07T12:36:00Z,42.805,6.029,13.3016,4.60060,2470.624,2022-11-07T14:37:57Z
2022-11-07T12:39:03Z,42.805,6.029,13.3013,4.60058,2470.646,2022-11-07T14:41:01Z
2022-11-07T12:42:06Z,42.805,6.029,13.3014,4.60059,2470.6,2022-11-07T14:44:04Z
2022-11-07T12:45:09Z,42.805,6.029,13.3017,4.60058,2470.6,2022-11-07T14:47:07Z
2022-11-07T12:48:12Z,42.805,6.029,13.3015,4.60060,2470.624,2022-11-07T14:50:10Z
2022-11-07T12:51:15Z,42.805,6.029,13.3013,4.60061,2470.646,2022-11-07T14:53:13Z
2022-11-07T12:54:19Z,42.805,6.029,13.3011,4.60063,2470.637,2022-11-07T14:56:16Z
2022-11-07T12:57:22Z,42.805,6.029,13.3017,4.60059,2470.624,2022-11-07T14:59:19Z
2022-11-07T13:00:25Z,42.805,6.029,13.3015,4.60062,2470.637,2022-11-07T15:02:22Z
2022-11-07T13:03:28Z,42.805,6.029,13.3015,4.60063,2470.614,2022-11-07T15:05:25Z
2022-11-07T13:06:31Z,42.805,6.029,13.3014,4.60060,2470.6,2022-11-07T15:08:28Z
2022-11-07T13:09:34Z,42.805,6.029,13.3015,4.60057,2470.637,2022-11-07T15:11:31Z
2022-11-07T13:12:37Z,42.805,6.029,13.3017,4.60058,2470.624,2022-11-07T15:14:34Z
2022-11-07T13:15:40Z,42.805,6.029,13.3013,4.60067,2470.661,2022-11-07T15:17:38Z
2022-11-07T13:18:43Z,42.805,6.029,13.3019,4.60064,2470.624,2022-11-07T15:20:41Z
2022-11-07T13:21:46Z,42.805,6.029,13.3015,4.60059,2470.624,2022-11-07T15:23:44Z
2022-11-07T13:24:49Z,42.805,6.029,13.3015,4.60058,2470.624,2022-11-07T15:26:47Z
2022-11-07T13:27:52Z,42.805,6.029,13.3015,4.60062,2470.646,2022-11-07T15:29:50Z
2022-11-07T13:30:55Z,42.805,6.029,13.3015,4.60057,2470.637,2022-11-07T15:32:53Z
2022-11-07T13:33:59Z,42.805,6.029,13.3012,4.60057,2470.637,2022-11-07T15:35:56Z
2022-11-07T13:37:02Z,42.805,6.029,13.3013,4.60057,2470.614,2022-11-07T15:38:59Z
2022-11-07T13:40:05Z,42.805,6.029,13.3016,4.60057,2470.624,2022-11-07T15:42:02Z
2022-11-07T13:43:08Z,42.805,6.029,13.3008,4.60057,2470.646,2022-11-07T15:45:05Z
2022-11-07T13:46:11Z,42.805,6.029,13.3014,4.60057,2470.6,2022-11-07T15:48:08Z
2022-11-07T13:49:14Z,42.805,6.029,13.3014,4.60058,2470.614,2022-11-07T15:51:11Z
2022-11-07T13:52:17Z,42.805,6.029,13.3013,4.60059,2470.6,2022-11-07T15:54:14Z
2022-11-07T13:55:20Z,42.805,6.029,13.3015,4.60057,2470.614,2022-11-07T15:57:18Z
2022-11-07T13:58:23Z,42.805,6.029,13.3016,4.60059,2470.637,2022-11-07T16:00:21Z
2022-11-07T14:01:26Z,42.805,6.029,13.3014,4.60057,2470.624,2022-11-07T16:03:24Z
2022-11-07T14:04:29Z,42.805,6.029,13.3011,4.60059,2470.6,2022-11-07T16:06:27Z
2022-11-07T14:07:32Z,42.805,6.029,13.3012,4.60057,2470.637,2022-11-07T16:09:30Z
2022-11-07T14:10:35Z,42.805,6.029,13.3017,4.60059,2470.637,2022-11-07T16:12:33Z
2022-11-07T14:13:38Z,42.805,6.029,13.3014,4.60057,2470.637,2022-11-07T16:15:36Z
2022-11-07T14:16:42Z,42.805,6.029,13.3015,4.60057,2470.646,2022-11-07T16:18:39Z
2022-11-07T14:19:45Z,42.805,6.029,13.3019,4.60060,2470.684,2022-11-07T16:21:42Z
2022-11-07T14:22:48Z,42.805,6.029,13.3014,4.60057,2470.614,2022-11-07T16:24:45Z
2022-11-07T14:25:51Z,42.805,6.029,13.3015,4.60058,2470.67,2022-11-07T16:27:48Z
2022-11-07T14:28:54Z,42.805,6.029,13.3013,4.60057,2470.707,2022-11-07T16:30:51Z
2022-11-07T14:31:57Z,42.805,6.029,13.3017,4.60057,2470.67,2022-11-07T16:33:54Z
2022-11-07T14:35:00Z,42.805,6.029,13.3014,4.60057,2470.661,2022-11-07T16:36:58Z
2022-11-07T14:38:03Z,42.805,6.029,13.3017,4.60059,2470.67,2022-11-07T16:40:01Z
2022-11-07T14:41:06Z,42.805,6.029,13.3017,4.60057,2470.633,2022-11-07T16:43:04Z
2022-11-07T14:44:09Z,42.805,6.029,13.3015,4.60060,2470.707,2022-11-07T16:46:07Z
2022-11-07T14:47:12Z,42.805,6.029,13.3015,4.60059,2470.67,2022-11-07T16:49:10Z
2022-11-07T14:50:15Z,42.805,6.029,13.3013,4.60059,2470.684,2022-11-07T16:52:13Z
2022-11-07T14:53:19Z,42.805,6.029,13.3017,4.60060,2470.646,2022-11-07T16:55:16Z
2022-11-07T14:56:22Z,42.805,6.029,13.3022,4.60057,2470.684,2022-11-07T16:58:19Z
2022-11-07T14:59:25Z,42.805,6.029,13.3018,4.60058,2470.67,2022-11-07T17:01:22Z
2022-11-07T15:02:28Z,42.805,6.029,13.3014,4.60057,2470.67,2022-11-07T17:04:25Z